Kingston, Jamaica

8:03 AM EST on June 28, 2017 (GMT -0500)
Norman Manley International

Weather History for MKJP - June, 2013

Change the Weather History Date:

Thursday, June 27, 2013

  Actual Average Record
Temperature  
Mean Temperature 83 °F -  
Max Temperature 90 °F 88 °F 95 °F (1998)
Min Temperature 76 °F 79 °F 75 °F (2010)
Cooling Degree Days 18    
Growing Degree Days 33 (Base 50)    
Moisture  
Dew Point 75 °F    
Average Humidity 72    
Maximum Humidity 84    
Minimum Humidity 59    
Precipitation  
Precipitation 0.00 in - - ()
Sea Level Pressure  
Sea Level Pressure 29.92 in    
Wind  
Wind Speed 8 mph ()    
Max Wind Speed 24 mph    
Max Gust Speed -    
Visibility 7.7 miles    
Events Thunderstorm    
Averages and records for this station are not official NWS values.
T = Trace of Precipitation, MM = Missing Value Source: Averaged Metar Reports

Daily Weather History Graph

Daily Weather History Graph

Search for Another Location

Airport or City:

Trip Planner

Search our weather history database for the weather conditions in past years. The results will help you decide how hot, cold, wet, or windy it might be!

Date:

Astronomy

Jun. 27, 2013 Rise Set
Actual Time 5:34 AM EST 6:46 PM EST
Civil Twilight 5:10 AM EST 7:10 PM EST
Nautical Twilight 4:41 AM EST 7:38 PM EST
Astronomical Twilight 4:12 AM EST 8:08 PM EST
Moon 10:29 PM EST (6/27) 9:51 AM EST (6/27)
Length of Visible Light 14h 00m
Length of Day
13h 11m
Waning Gibbous, 76% of the Moon is Illuminated
Jun 27
Waning Gibbous
Jun 29
Last Quarter
Jul 8
New
Jul 15
First Quarter
Jul 22
Full

Hourly Weather History & Observations

Time (EST) Temp. Heat Index Dew Point Humidity Pressure Visibility Wind Dir Wind Speed Gust Speed Precip Events Conditions
12:00 AM 82.4 °F 89.5 °F 75.2 °F 79% 29.95 in 6.2 mi SE 3.5 mph - N/A   Partly Cloudy
1:00 AM 82 °F - 76 °F 77% 29.95 in 12 mi SE 2.3 mph - -   Haze
1:00 AM 82.4 °F 89.5 °F 75.2 °F 79% 29.95 in 6.2 mi SE 2.3 mph - N/A   Partly Cloudy
2:00 AM 82.4 °F 88.2 °F 73.4 °F 74% 29.92 in 6.2 mi North 3.5 mph - N/A Thunderstorm Partly Cloudy
3:00 AM 80.6 °F 85.4 °F 73.4 °F 79% 29.92 in 6.2 mi NE 3.5 mph - N/A   Partly Cloudy
4:00 AM 79 °F - 71 °F 72% 29.90 in 12 mi West 4.6 mph - -   Haze
4:00 AM 80.6 °F 85.4 °F 73.4 °F 79% 29.92 in 6.2 mi East 2.3 mph - N/A   Partly Cloudy
5:00 AM 80.6 °F 86.2 °F 75.2 °F 84% 29.89 in 6.2 mi North 3.5 mph - N/A   Partly Cloudy
6:00 AM - - - N/A% - - North 8.1 mph - N/A   Unknown
7:00 AM 83 °F - 73 °F 65% 29.93 in 15 mi NNW 3.5 mph - -   Haze
7:00 AM 82.4 °F 88.2 °F 73.4 °F 74% 29.92 in 6.2 mi NNW 3.5 mph - N/A   Partly Cloudy
8:00 AM 84.2 °F 90.9 °F 73.4 °F 70% 29.92 in 6.2 mi NNW 3.5 mph - N/A   Partly Cloudy
9:00 AM 84.2 °F 90.9 °F 73.4 °F 70% 29.95 in 6.2 mi SSW 6.9 mph - N/A   Partly Cloudy
10:00 AM 87 °F - 75 °F 60% 29.94 in 16 mi SE 19.6 mph - -   Haze
10:00 AM 87.8 °F 97.6 °F 75.2 °F 66% 29.92 in 6.2 mi SE 19.6 mph - N/A   Partly Cloudy
11:00 AM 87.8 °F 97.6 °F 75.2 °F 66% 29.92 in 6.2 mi SE 20.7 mph - N/A   Scattered Clouds
11:30 AM 87.8 °F 97.6 °F 75.2 °F 66% 29.92 in 6.2 mi SE 20.7 mph - N/A   Scattered Clouds
12:00 PM 87.8 °F 97.6 °F 75.2 °F 66% 29.92 in 6.2 mi SE 24.2 mph - N/A   Partly Cloudy
1:00 PM 89 °F - 76 °F 59% 29.91 in 12 mi SE 23.0 mph - -   Mostly Cloudy
1:00 PM 89.6 °F 102.2 °F 77.0 °F 66% 29.89 in 6.2 mi SE 23.0 mph - N/A   Mostly Cloudy
2:00 PM 86.0 °F 96.9 °F 77.0 °F 74% 29.89 in 6.2 mi SE 24.2 mph - N/A Thunderstorm Thunderstorm
2:40 PM 86.0 °F 95.1 °F 75.2 °F 70% 29.89 in 6.2 mi SE 21.9 mph - N/A   Mostly Cloudy
3:00 PM 86.0 °F 95.1 °F 75.2 °F 70% 29.89 in 6.2 mi SE 21.9 mph - N/A   Scattered Clouds
4:00 PM 85 °F - 76 °F 67% 29.90 in 9 mi SE 16.1 mph - -   Partly Cloudy
4:00 PM 84.2 °F 92.3 °F 75.2 °F 74% 29.89 in 6.2 mi SE 16.1 mph - N/A   Scattered Clouds
5:00 PM 84.2 °F 90.9 °F 73.4 °F 70% 29.89 in 6.2 mi SE 15.0 mph - N/A   Partly Cloudy
6:00 PM 84.2 °F 92.3 °F 75.2 °F 74% 29.89 in 6.2 mi SE 13.8 mph - N/A   Scattered Clouds
7:00 PM 85 °F - 76 °F 67% 29.91 in 12 mi East 8.1 mph - -   Haze
7:00 PM 84.2 °F 92.3 °F 75.2 °F 74% 29.89 in 6.2 mi East 8.1 mph - N/A   Scattered Clouds
8:00 PM 82.4 °F 89.5 °F 75.2 °F 79% 29.92 in 6.2 mi North 5.8 mph - N/A   Partly Cloudy
9:00 PM 82.4 °F 89.5 °F 75.2 °F 79% 29.95 in 6.2 mi NNE 8.1 mph - N/A   Partly Cloudy
10:00 PM 82 °F - 74 °F 72% 29.96 in 12 mi NNE 4.6 mph - -   Haze
10:00 PM 82.4 °F 89.5 °F 75.2 °F 79% 29.95 in 6.2 mi NNE 4.6 mph - N/A   Partly Cloudy
11:00 PM 82.4 °F 88.2 °F 73.4 °F 74% 29.95 in 6.2 mi WSW 3.5 mph - N/A   Partly Cloudy